Regional Weather Roundup
Issued by NWS

Home | Current Version | Previous Version | Graphics & Text | Print | Product List | Glossary Off
Versions: 1 2 3 4 5 6 7 8 9 10 11 12 13 14 15 16 17 18 19 20 21 22 23 24 25 26 27 28 29 30 31 32 33 34 35 36 37 38 39 40 41 42 43 44 45 46 47 48 49 50

000
ASUS43 KTOP 230259
RWRKS

WEATHER ROUNDUP FOR KANSAS
NATIONAL WEATHER SERVICE GOODLAND KS
1000 PM CDT MON MAY 22 2017

NOTE:  "FAIR" INDICATES FEW OR NO CLOUDS BELOW 12,000 FEET WITH NO
SIGNIFICANT WEATHER AND/OR OBSTRUCTIONS TO VISIBILITY.

KSZ001>006-013>018-027>032-041>047-230400-
NORTHWEST KANSAS

CITY           SKY/WX    TMP DP  RH WIND       PRES   REMARKS
GOODLAND       CLOUDY    49  46  90 NW12      30.10R
HAYS           CLOUDY    61  52  72 NW9       29.93R
HILL CITY      LGT RAIN  58  48  69 NW18G31   30.02R
RUSSELL        CLOUDY    60  50  69 S10       29.90R
$$

KSZ061>065-074>080-084>089-230400-
SOUTHWEST KANSAS

CITY           SKY/WX    TMP DP  RH WIND       PRES   REMARKS
DODGE CITY     CLEAR     54  51  90 SW6       29.96R
ELKHART          N/A     55  40  57 S8          N/A
GARDEN CITY    TSTM      53  47  79 N16G33    30.02R
GREAT BEND     CLOUDY    58  54  86 SW7       29.93R
LIBERAL        CLEAR     54  50  86 S7        29.99S
$$

KSZ066>073-081>083-090>101-230400-
SOUTHEAST KANSAS

CITY           SKY/WX    TMP DP  RH WIND       PRES   REMARKS
CHANUTE        CLOUDY    64  57  78 SW3       29.91F
COFFEYVILLE    CLOUDY    64  60  87 SW5       29.91F
HUTCHINSON     CLEAR     53  53 100 S3        29.92S
MEDICINE LODGE   N/A     57  55  93 SW7       29.94S
NEWTON         PTCLDY    57  56  96 W5        29.94R
PARSONS        CLOUDY    62  58  86 SE3       29.92F
WICHITA INTL   PTCLDY    57  57 100 CALM      29.93R
WICHITA JABRA  PTCLDY    58  56  93 SW7       29.92R
WINFIELD       PTCLDY    59  59 100 SW3       29.93F
$$

KSZ007>012-019>026-033>040-048>060-102>105-230400-
NORTHEAST KANSAS

CITY           SKY/WX    TMP DP  RH WIND       PRES   REMARKS
CONCORDIA      CLOUDY    54  52  93 S7        29.93R
EMPORIA        CLOUDY    60  59  96 N3        29.93R
LAWRENCE       CLOUDY    59  59 100 CALM      29.94R
MANHATTAN      LGT RAIN  59  57  93 SW9       29.92F
OLATHE IND     CLOUDY    59  56  89 E6        29.93S
OLATHE EXE     LGT RAIN  57  57 100 SE6       29.93R
SALINA         CLOUDY    62  57  83 E7        29.94R
TOPEKA BILLARD MOCLDY    59  59 100 CALM      29.93S
TOPEKA FORBES  MOCLDY    59  58  96 CALM      29.93R
$$



USA.gov is the U.S. government's official web portal to all federal, state and local government web resources and services.